When you browse on this site, cookies collect data to enhance your experience and personalize the content and advertising you see.
Visit our Privacy Policy to learn more. By continuing to use the site, you agree to this use of cookies and data.
  • In Sweden
  • List of Countries
  • For 7 days
  • Water Temperature
  • Satellite Maps
  • Weather Map
  • Weather Widgets
  • user-avatar
    Login

    Hourly Weather Ahlat

    Today, 13 December, Thursday

    Time Temperature Precipitation Wind Pressure Humidity
    00:00 0°C° 1.8 mm 7 mps 613 mmHg 93%
    01:00 -1°C° 0.5 mm 7 mps 613 mmHg 92%
    02:00 -1°C° 0.5 mm 7 mps 613 mmHg 91%
    03:00 -2°C° 0 mm 10 mps 613 mmHg 91%
    04:00 -3°C° 0.1 mm 9 mps 613 mmHg 89%
    05:00 -2°C° 0.1 mm 8 mps 614 mmHg 87%
    06:00 -3°C° 0.1 mm 7 mps 614 mmHg 85%
    07:00 -3°C° 0.1 mm 7 mps 615 mmHg 85%
    08:00 -3°C° 0.1 mm 6 mps 615 mmHg 85%
    09:00 -3°C° 0.1 mm 6 mps 615 mmHg 85%
    10:00 -2°C° 0.3 mm 5 mps 616 mmHg 84%
    11:00 -2°C° 0.3 mm 5 mps 616 mmHg 84%
    12:00 -2°C° 0.3 mm 5 mps 616 mmHg 83%
    13:00 -1°C° 0.2 mm 5 mps 616 mmHg 82%
    14:00 -1°C° 0.2 mm 5 mps 617 mmHg 81%
    15:00 -1°C° 0.2 mm 5 mps 617 mmHg 80%
    16:00 -2°C° 0.1 mm 4 mps 618 mmHg 82%
    17:00 -3°C° 0.1 mm 4 mps 618 mmHg 84%
    18:00 -2°C° 0.1 mm 3 mps 619 mmHg 86%
    19:00 -4°C° 0.1 mm 3 mps 619 mmHg 86%
    20:00 -4°C° 0.1 mm 3 mps 619 mmHg 86%
    21:00 -4°C° 0.1 mm 2 mps 620 mmHg 86%
    22:00 -4°C° 0 mm 2 mps 620 mmHg 86%
    23:00 -4°C° 0 mm 2 mps 620 mmHg 86%

    Tomorrow, 14 December, Friday

    Time Temperature Precipitation Wind Pressure Humidity
    00:00 -4°C° 0 mm 2 mps 620 mmHg 87%
    01:00 -4°C° 0 mm 2 mps 621 mmHg 87%
    02:00 -4°C° 0 mm 2 mps 621 mmHg 87%
    03:00 -4°C° 0 mm 2 mps 621 mmHg 87%
    04:00 -4°C° 0 mm 2 mps 621 mmHg 87%
    05:00 -4°C° 0 mm 2 mps 621 mmHg 87%
    06:00 -4°C° 0 mm 2 mps 621 mmHg 87%
    07:00 -4°C° 0 mm 2 mps 621 mmHg 87%
    08:00 -4°C° 0 mm 2 mps 621 mmHg 86%
    09:00 -3°C° 0 mm 2 mps 621 mmHg 86%
    10:00 -2°C° 0 mm 3 mps 620 mmHg 84%
    11:00 -1°C° 0 mm 3 mps 620 mmHg 82%
    12:00 -1°C° 0 mm 4 mps 620 mmHg 79%
    13:00 -1°C° 0 mm 4 mps 620 mmHg 78%
    14:00 -1°C° 0 mm 4 mps 620 mmHg 78%
    15:00 -1°C° 0 mm 4 mps 619 mmHg 77%
    16:00 -2°C° 0 mm 4 mps 620 mmHg 80%
    17:00 -3°C° 0 mm 4 mps 620 mmHg 83%
    18:00 -4°C° 0 mm 3 mps 620 mmHg 86%
    19:00 -4°C° 0 mm 3 mps 620 mmHg 87%
    20:00 -4°C° 0 mm 3 mps 620 mmHg 87%
    21:00 -5°C° 0 mm 3 mps 620 mmHg 88%
    22:00 -5°C° 0 mm 3 mps 621 mmHg 88%
    23:00 -4°C° 0 mm 2 mps 621 mmHg 89%

    Day after tomorrow, 15 December, Saturday

    Time Temperature Precipitation Wind Pressure Humidity
    00:00 -4°C° 0 mm 2 mps 621 mmHg 89%
    01:00 -4°C° 0 mm 2 mps 621 mmHg 90%
    02:00 -4°C° 0 mm 2 mps 621 mmHg 90%
    03:00 -3°C° 0 mm 1 mps 621 mmHg 91%
    04:00 -3°C° 0 mm 1 mps 621 mmHg 90%
    05:00 -3°C° 0 mm 1 mps 621 mmHg 89%
    06:00 -4°C° 0 mm 0 mps 621 mmHg 89%
    07:00 -3°C° 0 mm 0 mps 621 mmHg 87%
    08:00 -2°C° 0 mm 1 mps 622 mmHg 85%
    09:00 -2°C° 0 mm 1 mps 622 mmHg 83%
    10:00 0°C° 0 mm 1 mps 622 mmHg 80%
    11:00 0°C° 0 mm 0 mps 622 mmHg 78%
    12:00 +1°C° 0 mm 0 mps 622 mmHg 75%
    13:00 +1°C° 0 mm 0 mps 621 mmHg 74%
    14:00 +1°C° 0 mm 0 mps 621 mmHg 73%
    15:00 +1°C° 0 mm 0 mps 621 mmHg 71%
    16:00 +1°C° 0 mm 1 mps 621 mmHg 74%
    17:00 0°C° 0 mm 1 mps 621 mmHg 76%
    18:00 -2°C° 0 mm 1 mps 621 mmHg 78%
    19:00 -2°C° 0 mm 1 mps 621 mmHg 78%
    20:00 -2°C° 0 mm 1 mps 621 mmHg 77%
    21:00 -2°C° 0 mm 1 mps 621 mmHg 76%
    22:00 -2°C° 0 mm 1 mps 621 mmHg 76%
    23:00 -2°C° 0 mm 1 mps 621 mmHg 76%

    16 December, Sunday

    Time Temperature Precipitation Wind Pressure Humidity
    00:00 -2°C° 0 mm 1 mps 621 mmHg 76%
    01:00 -2°C° 0 mm 1 mps 621 mmHg 75%
    02:00 -2°C° 0 mm 1 mps 621 mmHg 75%
    03:00 -2°C° 0 mm 1 mps 621 mmHg 75%
    04:00 -2°C° 0 mm 1 mps 621 mmHg 75%
    05:00 -2°C° 0 mm 1 mps 621 mmHg 75%
    06:00 -2°C° 0 mm 1 mps 621 mmHg 74%
    07:00 -1°C° 0 mm 1 mps 621 mmHg 73%
    08:00 0°C° 0 mm 1 mps 621 mmHg 71%
    09:00 0°C° 0 mm 1 mps 621 mmHg 70%
    10:00 +1°C° 0 mm 1 mps 621 mmHg 69%
    11:00 +2°C° 0 mm 1 mps 621 mmHg 68%
    12:00 +3°C° 0 mm 1 mps 620 mmHg 67%
    13:00 +3°C° 0 mm 1 mps 620 mmHg 66%
    14:00 +3°C° 0 mm 1 mps 620 mmHg 66%
    15:00 +2°C° 0 mm 0 mps 619 mmHg 65%
    16:00 +2°C° 0 mm 1 mps 619 mmHg 67%
    17:00 +1°C° 0 mm 1 mps 619 mmHg 69%
    18:00 0°C° 0 mm 1 mps 619 mmHg 71%
    19:00 0°C° 0 mm 1 mps 619 mmHg 71%
    20:00 -2°C° 0 mm 2 mps 619 mmHg 70%
    21:00 -2°C° 0 mm 2 mps 619 mmHg 70%
    22:00 -2°C° 0 mm 2 mps 619 mmHg 70%
    23:00 0°C° 0 mm 1 mps 619 mmHg 71%

    17 December, Monday

    Time Temperature Precipitation Wind Pressure Humidity
    00:00 +1°C° 0 mm 1 mps 618 mmHg 71%
    01:00 +1°C° 0 mm 1 mps 618 mmHg 72%
    02:00 +1°C° 0 mm 1 mps 618 mmHg 74%
    03:00 +1°C° 0 mm 1 mps 618 mmHg 75%
    04:00 0°C° 0.2 mm 1 mps 617 mmHg 78%
    05:00 0°C° 0.2 mm 1 mps 617 mmHg 81%
    06:00 -2°C° 0.2 mm 2 mps 617 mmHg 84%
    07:00 -2°C° 0.2 mm 2 mps 617 mmHg 84%
    08:00 -1°C° 0.2 mm 2 mps 616 mmHg 84%
    09:00 -1°C° 0.2 mm 2 mps 616 mmHg 85%
    10:00 -1°C° 0.1 mm 2 mps 616 mmHg 84%
    11:00 +1°C° 0.1 mm 2 mps 616 mmHg 84%
    12:00 +1°C° 0.1 mm 2 mps 615 mmHg 83%
    13:00 +1°C° 0.5 mm 2 mps 615 mmHg 85%
    14:00 +1°C° 0.5 mm 2 mps 615 mmHg 87%
    15:00 +2°C° 0.5 mm 1 mps 614 mmHg 90%
    16:00 +2°C° 0.8 mm 1 mps 614 mmHg 90%
    17:00 +1°C° 0.8 mm 1 mps 615 mmHg 91%
    18:00 +1°C° 0.8 mm 1 mps 615 mmHg 92%
    19:00 +1°C° 0.4 mm 1 mps 615 mmHg 92%
    20:00 +1°C° 0.4 mm 1 mps 615 mmHg 92%
    21:00 0°C° 0.4 mm 1 mps 615 mmHg 92%
    22:00 0°C° 0.2 mm 1 mps 615 mmHg 92%
    23:00 0°C° 0.2 mm 1 mps 615 mmHg 92%

    18 December, Tuesday

    Time Temperature Precipitation Wind Pressure Humidity
    00:00 0°C° 0.2 mm 1 mps 615 mmHg 92%
    01:00 0°C° 0.1 mm 1 mps 615 mmHg 92%
    02:00 0°C° 0.1 mm 1 mps 615 mmHg 92%
    03:00 -1°C° 0.1 mm 1 mps 615 mmHg 91%
    04:00 -1°C° 0 mm 1 mps 615 mmHg 91%
    05:00 -1°C° 0 mm 1 mps 615 mmHg 91%
    06:00 -1°C° 0 mm 1 mps 615 mmHg 90%
    07:00 -1°C° 0 mm 1 mps 615 mmHg 90%
    08:00 -1°C° 0 mm 1 mps 615 mmHg 89%
    09:00 -1°C° 0 mm 1 mps 616 mmHg 89%
    10:00 0°C° 0 mm 1 mps 616 mmHg 88%
    11:00 0°C° 0 mm 0 mps 616 mmHg 87%
    12:00 +1°C° 0 mm 0 mps 616 mmHg 86%
    13:00 +2°C° 0 mm 1 mps 616 mmHg 86%
    14:00 +2°C° 0 mm 1 mps 616 mmHg 86%
    15:00 +2°C° 0 mm 1 mps 616 mmHg 86%
    16:00 +1°C° 0 mm 1 mps 616 mmHg 88%
    17:00 0°C° 0 mm 1 mps 617 mmHg 89%
    18:00 -1°C° 0 mm 1 mps 617 mmHg 91%
    19:00 -1°C° 0 mm 1 mps 617 mmHg 91%
    20:00 -1°C° 0 mm 1 mps 618 mmHg 91%
    21:00 -1°C° 0 mm 1 mps 618 mmHg 91%
    22:00 -1°C° 0 mm 1 mps 618 mmHg 91%
    23:00 -2°C° 0 mm 1 mps 618 mmHg 91%
    Show more